Location: Écuvilly
(49.6505°N, 2.9206°E)
Time: 01:11:16
(UTC+00:00)

ATLAS 5 CENTAUR R/B - Pass Details

Date: 17 November 2025
Orbit: 373 x 1089 km, 63.3° (Epoch: 13 December)

Event Time Altitude Azimuth Distance (km) Brightness Sun altitude
Rises 16:50:09 0° 314° (NW) 2,713 5.2 -7.8°
Reaches altitude 10° 16:52:11 10° 311° (NW) 1,913 4.5 -8.1°
Maximum altitude 16:56:27 61° 232° (SW) 773 2.4 -8.7°
Drops below altitude 10° 17:01:46 10° 153° (SSE) 2,368 4.5 -9.6°
Sets 17:04:30 0° 150° (SSE) 3,421 5.2 -10.0°
